Weather History for Salida, CO

Change the Weather History Date:

Thursday, August 15, 2013

  Actual Average (KGUC) Record (KGUC)
Temperature  
Mean Temperature 66 °F -  
Max Temperature 85 °F 74 °F 84 °F (2002)
Min Temperature 47 °F 42 °F 33 °F (2002)
Cooling Degree Days 1    
Growing Degree Days 16 (Base 50)    
Moisture  
Dew Point 33 °F    
Average Humidity 35    
Maximum Humidity 64    
Minimum Humidity 10    
Precipitation  
Precipitation 0.00 in - - ()
Sea Level Pressure  
Sea Level Pressure 30.43 in    
Wind  
Wind Speed 6 mph (West)    
Max Wind Speed 15 mph    
Max Gust Speed 24 mph    
Visibility 10 miles    
Events      
Averages and records for this station are not official NWS values.
T = Trace of Precipitation, MM = Missing Value Source: NWS Daily Summary

Daily Weather History Graph

Daily Weather History Graph

Search for Another Location

Airport:

Trip Planner

Search our weather history database for the weather conditions in past years. The results will help you decide how hot, cold, wet, or windy it might be!

Date:

Astronomy

Aug. 15, 2013 Rise Set
Actual Time 6:18 AM MDT 7:57 PM MDT
Civil Twilight 5:50 AM MDT 8:26 PM MDT
Nautical Twilight 5:16 AM MDT 9:00 PM MDT
Astronomical Twilight 4:39 AM MDT 9:36 PM MDT
Moon 3:16 PM MDT (8/15) 12:31 AM MDT (8/15)
Length of Visible Light 14h 35m
Length of Day
13h 39m
Waxing Gibbous, 65% of the Moon is Illuminated
Aug 15
Waxing Gibbous
Aug 20
Full
Aug 28
Last Quarter
Sep 5
New
Sep 12
First Quarter

Hourly Weather History & Observations

Time (MDT) Temp. Dew Point Humidity Pressure Visibility Wind Dir Wind Speed Gust Speed Precip Events Conditions
12:15 AM 53.6 °F 36.9 °F 53% 30.47 in 10.0 mi WSW 9.2 mph - N/A   Clear
12:35 AM 53.8 °F 36.5 °F 52% 30.46 in 10.0 mi WSW 9.2 mph - N/A   Clear
12:55 AM 54.5 °F 37.6 °F 53% 30.46 in 10.0 mi WSW 5.8 mph - N/A   Clear
1:15 AM 54.0 °F 37.2 °F 53% 30.45 in 10.0 mi WSW 8.1 mph - N/A   Clear
1:35 AM 54.0 °F 37.2 °F 53% 30.45 in 10.0 mi WSW 8.1 mph - N/A   Clear
1:55 AM 54.1 °F 37.8 °F 54% 30.45 in 10.0 mi NW 3.5 mph - N/A   Clear
2:15 AM 53.4 °F 38.3 °F 57% 30.45 in 10.0 mi Calm Calm - N/A   Clear
2:35 AM 53.4 °F 37.9 °F 56% 30.45 in 10.0 mi West 4.6 mph - N/A   Clear
2:55 AM 52.3 °F 38.3 °F 59% 30.45 in 10.0 mi WSW 6.9 mph - N/A   Clear
3:15 AM 50.9 °F 38.3 °F 62% 30.46 in 10.0 mi West 8.1 mph - N/A   Clear
3:35 AM 53.1 °F 36.7 °F 54% 30.46 in 10.0 mi WNW 6.9 mph - N/A   Clear
3:55 AM 52.3 °F 36.1 °F 54% 30.46 in 10.0 mi West 4.6 mph - N/A   Clear
4:15 AM 49.3 °F 36.9 °F 62% 30.46 in 10.0 mi West 5.8 mph - N/A   Clear
4:35 AM 48.7 °F 36.3 °F 62% 30.46 in 10.0 mi West 3.5 mph - N/A   Clear
4:55 AM 48.7 °F 36.3 °F 62% 30.46 in 10.0 mi West 3.5 mph - N/A   Clear
5:15 AM 50.5 °F 36.0 °F 57% 30.47 in 10.0 mi NW 5.8 mph - N/A   Clear
5:35 AM 48.2 °F 36.5 °F 64% 30.47 in 10.0 mi West 3.5 mph - N/A   Clear
5:55 AM 47.5 °F 36.0 °F 64% 30.47 in 10.0 mi NW 3.5 mph - N/A   Clear
6:15 AM 50.0 °F 36.0 °F 59% 30.47 in 10.0 mi NW 6.9 mph - N/A   Clear
6:35 AM 48.0 °F 36.5 °F 64% 30.47 in 10.0 mi West 5.8 mph - N/A   Clear
6:55 AM 48.4 °F 36.5 °F 64% 30.47 in 10.0 mi Calm Calm - N/A   Clear
7:15 AM 50.2 °F 36.5 °F 59% 30.48 in 10.0 mi WNW 6.9 mph - N/A   Clear
7:35 AM 51.8 °F 35.8 °F 54% 30.48 in 10.0 mi NW 9.2 mph - N/A   Clear
7:55 AM 52.3 °F 36.9 °F 56% 30.49 in 10.0 mi NNW 3.5 mph - N/A   Clear
8:15 AM 54.3 °F 37.4 °F 53% 30.49 in 10.0 mi NNW 3.5 mph - N/A   Clear
8:35 AM 56.5 °F 36.5 °F 47% 30.48 in 10.0 mi WNW 4.6 mph - N/A   Clear
8:55 AM 58.3 °F 36.0 °F 43% 30.47 in 10.0 mi NNW 6.9 mph - N/A   Clear
9:15 AM 60.3 °F 36.7 °F 41% 30.47 in 10.0 mi NW 3.5 mph - N/A   Clear
9:35 AM 63.1 °F 36.0 °F 36% 30.46 in 10.0 mi Calm Calm - N/A   Clear
9:55 AM 65.5 °F 36.5 °F 34% 30.45 in 10.0 mi Calm Calm - N/A   Clear
10:15 AM 67.1 °F 36.1 °F 32% 30.45 in 10.0 mi NNE 3.5 mph - N/A   Clear
10:35 AM 69.6 °F 37.4 °F 31% 30.45 in 10.0 mi Calm Calm - N/A   Clear
10:55 AM 70.9 °F 37.0 °F 29% 30.44 in 10.0 mi Calm Calm - N/A   Clear
11:15 AM 72.7 °F 38.3 °F 29% 30.43 in 10.0 mi Calm Calm - N/A   Clear
11:35 AM 76.5 °F 38.5 °F 25% 30.42 in 10.0 mi NNE 5.8 mph - N/A   Clear
11:55 AM 76.5 °F 36.1 °F 23% 30.42 in 10.0 mi Calm Calm - N/A   Scattered Clouds
12:15 PM 79.0 °F 32.2 °F 18% 30.40 in 10.0 mi SSE 6.9 mph - N/A   Clear
12:35 PM 82.6 °F 25.5 °F 12% 30.40 in 10.0 mi NNE 5.8 mph - N/A   Scattered Clouds
12:55 PM 83.1 °F 23.4 °F 11% 30.40 in 10.0 mi Calm Calm - N/A   Scattered Clouds
1:15 PM 79.9 °F 22.8 °F 12% 30.39 in 10.0 mi NNE 4.6 mph - N/A   Scattered Clouds
1:35 PM 80.4 °F 22.5 °F 12% 30.39 in 10.0 mi NNE 3.5 mph - N/A   Scattered Clouds
1:55 PM 79.5 °F 21.2 °F 11% 30.39 in 10.0 mi SE 3.5 mph - N/A   Scattered Clouds
2:15 PM 83.5 °F 23.5 °F 11% 30.38 in 10.0 mi WSW 5.8 mph - N/A   Clear
2:35 PM 82.0 °F 24.4 °F 12% 30.38 in 10.0 mi WSW 9.2 mph - N/A   Clear
2:55 PM 81.1 °F 22.3 °F 11% 30.37 in 10.0 mi WSW 4.6 mph - N/A   Clear
3:15 PM 83.1 °F 22.8 °F 11% 30.37 in 10.0 mi SW 8.1 mph - N/A   Clear
3:35 PM 83.5 °F 24.1 °F 11% 30.37 in 10.0 mi WSW 3.5 mph - N/A   Clear
3:55 PM 82.9 °F 21.0 °F 10% 30.35 in 10.0 mi North 8.1 mph - N/A   Clear
4:15 PM 82.6 °F 22.1 °F 11% 30.36 in 10.0 mi NW 3.5 mph - N/A   Clear
4:35 PM 85.1 °F 23.0 °F 10% 30.35 in 10.0 mi West 9.2 mph - N/A   Clear
4:55 PM 84.6 °F 27.7 °F 13% 30.36 in 10.0 mi West 12.7 mph - N/A   Clear
5:15 PM 84.6 °F 25.5 °F 12% 30.37 in 10.0 mi SW 5.8 mph - N/A   Scattered Clouds
5:35 PM 85.3 °F 23.4 °F 10% 30.36 in 10.0 mi NE 5.8 mph - N/A   Clear
5:55 PM 83.1 °F 24.3 °F 12% 30.36 in 10.0 mi WNW 8.1 mph 17.3 mph N/A   Clear
6:15 PM 82.0 °F 24.8 °F 12% 30.36 in 10.0 mi West 11.5 mph - N/A   Clear
6:35 PM 80.2 °F 25.2 °F 13% 30.36 in 10.0 mi WNW 4.6 mph - N/A   Clear
6:55 PM 77.9 °F 21.6 °F 12% 30.37 in 10.0 mi West 10.4 mph - N/A   Clear
7:15 PM 77.0 °F 20.8 °F 12% 30.38 in 10.0 mi West 12.7 mph 24.2 mph N/A   Clear
7:35 PM 75.4 °F 22.8 °F 14% 30.39 in 10.0 mi West 15.0 mph 19.6 mph N/A   Clear
7:55 PM 73.9 °F 25.3 °F 16% 30.40 in 10.0 mi West 5.8 mph - N/A   Clear
8:15 PM 72.1 °F 26.4 °F 18% 30.42 in 10.0 mi Calm Calm - N/A   Clear
8:35 PM 73.9 °F 26.6 °F 17% 30.42 in 10.0 mi SE 8.1 mph - N/A   Clear
8:55 PM 73.6 °F 36.3 °F 26% 30.42 in 10.0 mi ESE 9.2 mph - N/A   Clear
9:15 PM 72.1 °F 40.5 °F 32% 30.43 in 10.0 mi East 4.6 mph - N/A   Clear
9:35 PM 70.2 °F 43.9 °F 39% 30.43 in 10.0 mi ESE 4.6 mph - N/A   Clear
9:55 PM 68.9 °F 45.7 °F 43% 30.45 in 10.0 mi ESE 6.9 mph - N/A   Clear
10:15 PM 68.2 °F 43.5 °F 41% 30.45 in 10.0 mi SSE 4.6 mph - N/A   Clear
10:35 PM 68.0 °F 43.2 °F 41% 30.45 in 10.0 mi Calm Calm - N/A   Clear
10:55 PM 67.1 °F 42.4 °F 41% 30.45 in 10.0 mi SSE 8.1 mph - N/A   Clear
11:15 PM 60.6 °F 39.4 °F 45% 30.46 in 10.0 mi SW 9.2 mph - N/A   Clear
11:55 PM 60.1 °F 40.3 °F 48% 30.47 in 10.0 mi SW 8.1 mph - N/A   Clear